Location: Grange Rosano
(44.4500°N, 6.9667°E)
Time: 07:54:56
(UTC+00:00)

Resurs 1-4 Rocket - Pass Details

Date: 26 May 2022
Orbit: 800 x 813 km, 98.7° (Epoch: 01 July)

Event Time Altitude Azimuth Distance (km) Brightness Sun altitude
Rises 03:02:45 0° 356° (N) 3,321 5.9 -8.3°
Reaches altitude 10° 03:06:35 10° 327° (NNW) 2,387 4.7 -7.8°
Maximum altitude 03:08:34 12° 305° (NW) 2,231 4.3 -7.5°
Drops below altitude 10° 03:10:34 10° 282° (WNW) 2,384 4.2 -7.3°
Enters shadow 03:13:02 - 261° (W) 2,915 4.5 -6.9°
